Tracking 19800 objects as of 24-Jul-2019
HD Live streaming from Space Station
objects crossing your sky now

GB 2

Track GB 2 now!
10-day predictions
GB 2 is classified as:


NORAD ID: 14144
Int'l Code: 1983-056D
Perigee: 384.3 km
Apogee: 1,745.7 km
Inclination: 63.3 °
Period: 106.4 minutes
Semi major axis: 7435 km
RCS: Unknown
Launch date: June 9, 1983
Source: United States (US)
Launch site: AIR FORCE WESTERN TEST RANGE (AFWTR)
aabbcc
Your satellite tracking list
Your tracking list is empty




NASA's NSSDC Master Catalog

Two Line Element Set (TLE):
1 14144U 83056D   19203.57021505  .00000234  00000-0  32444-4 0  9996
2 14144  63.2902 216.9255 0915434  86.2804 284.2284 13.53924619 12200
Source of the keplerian elements: McCants